Location: Widewater Village at Stafford
(38.4893°N, 77.3783°W)
Time: 11:13:32
(UTC+00:00)

X-37B - Pass Details

Date: 04 December 2022
Orbit: 277 x 277 km, 45.0° (Epoch: 01 November)

Event Time Altitude Azimuth Distance (km) Brightness Sun altitude
Rises 23:27:38 0° 213° (SSW) 1,900 4.8 -18.9°
Reaches altitude 10° 23:29:49 10° 194° (SSW) 1,092 3.2 -19.3°
Enters shadow 23:30:16 13° 186° (S) 954 2.8 -19.4°
